Time,TemperatureF,DewpointF,PressureIn,WindDirection,WindDirectionDegrees,WindSpeedMPH,WindSpeedGustMPH,Humidity,HourlyPrecipIn,Conditions,Clouds,dailyrainin,SoftwareType,DateUTC
2013-03-27 00:03:00,52.3,44.6,30.06,SSW,200,2.0,5.0,75,0.00,,,0.00,Wunderground v.1.15,2013-03-27 07:03:00,
2013-03-27 00:09:00,52.1,44.4,30.06,SSW,200,3.0,5.0,75,0.00,,,0.00,Wunderground v.1.15,2013-03-27 07:09:00,
2013-03-27 00:14:00,52.2,44.5,30.06,SSW,200,2.0,4.0,75,0.00,,,0.00,Wunderground v.1.15,2013-03-27 07:14:00,
2013-03-27 00:20:00,51.9,44.2,30.06,SSW,200,3.0,3.0,75,0.00,,,0.00,Wunderground v.1.15,2013-03-27 07:20:00,
2013-03-27 00:25:00,51.7,44.0,30.06,SSW,200,3.0,4.0,75,0.00,,,0.00,Wunderground v.1.15,2013-03-27 07:25:00,
2013-03-27 00:31:00,51.5,43.8,30.06,SSW,196,3.0,3.0,75,0.00,,,0.00,Wunderground v.1.15,2013-03-27 07:31:00,
2013-03-27 00:37:00,51.2,43.9,30.06,South,188,2.0,5.0,76,0.00,,,0.00,Wunderground v.1.15,2013-03-27 07:37:00,
2013-03-27 00:43:00,51.2,43.9,30.06,South,188,1.0,3.0,76,0.00,,,0.00,Wunderground v.1.15,2013-03-27 07:43:00,
2013-03-27 00:49:00,51.1,43.8,30.06,South,188,2.0,3.0,76,0.00,,,0.00,Wunderground v.1.15,2013-03-27 07:49:00,
2013-03-27 00:55:00,51.0,43.7,30.06,South,187,0.0,1.0,76,0.00,,,0.00,Wunderground v.1.15,2013-03-27 07:55:00,
2013-03-27 01:00:00,50.8,43.5,30.06,South,187,0.0,0.0,76,0.00,,,0.00,Wunderground v.1.15,2013-03-27 08:00:00,
2013-03-27 01:05:00,51.0,43.7,30.06,South,187,0.0,0.0,76,0.00,,,0.00,Wunderground v.1.15,2013-03-27 08:05:00,
2013-03-27 01:11:00,51.0,43.7,30.06,South,187,1.0,1.0,76,0.00,,,0.00,Wunderground v.1.15,2013-03-27 08:11:00,
2013-03-27 01:17:00,50.8,43.5,30.06,South,187,0.0,1.0,76,0.00,,,0.00,Wunderground v.1.15,2013-03-27 08:17:00,
2013-03-27 01:22:00,51.0,43.7,30.06,South,187,0.0,0.0,76,0.00,,,0.00,Wunderground v.1.15,2013-03-27 08:22:00,
2013-03-27 01:27:00,51.2,43.5,30.06,South,187,0.0,0.0,75,0.00,,,0.00,Wunderground v.1.15,2013-03-27 08:27:00,
2013-03-27 01:33:00,51.3,43.6,30.06,South,187,0.0,0.0,75,0.00,,,0.00,Wunderground v.1.15,2013-03-27 08:33:00,
2013-03-27 01:38:00,51.4,43.7,30.06,South,187,0.0,0.0,75,0.00,,,0.00,Wunderground v.1.15,2013-03-27 08:38:00,
2013-03-27 01:44:00,51.4,43.7,30.06,South,187,0.0,1.0,75,0.00,,,0.00,Wunderground v.1.15,2013-03-27 08:44:00,
2013-03-27 01:49:00,51.2,43.5,30.06,South,186,4.0,4.0,75,0.00,,,0.00,Wunderground v.1.15,2013-03-27 08:49:00,
2013-03-27 01:54:00,51.1,43.4,30.06,South,185,1.0,3.0,75,0.00,,,0.00,Wunderground v.1.15,2013-03-27 08:54:00,
2013-03-27 02:00:00,51.0,43.0,30.06,South,175,4.0,4.0,74,0.00,,,0.00,Wunderground v.1.15,2013-03-27 09:00:00,
2013-03-27 02:05:00,50.6,43.0,30.06,South,170,0.0,4.0,75,0.00,,,0.00,Wunderground v.1.15,2013-03-27 09:05:00,
2013-03-27 02:10:00,50.2,42.9,30.06,South,169,0.0,1.0,76,0.00,,,0.00,Wunderground v.1.15,2013-03-27 09:10:00,
2013-03-27 02:15:00,50.2,42.9,30.06,SSE,167,7.0,7.0,76,0.00,,,0.00,Wunderground v.1.15,2013-03-27 09:15:00,
2013-03-27 02:20:00,50.3,43.0,30.06,SSE,165,2.0,3.0,76,0.00,,,0.00,Wunderground v.1.15,2013-03-27 09:20:00,
2013-03-27 02:25:00,50.0,42.7,30.06,SSE,165,0.0,4.0,76,0.00,,,0.00,Wunderground v.1.15,2013-03-27 09:25:00,
2013-03-27 02:30:00,49.9,43.0,30.06,SSE,165,0.0,0.0,77,0.00,,,0.00,Wunderground v.1.15,2013-03-27 09:30:00,
2013-03-27 02:35:00,49.9,43.0,30.05,SSE,165,0.0,1.0,77,0.00,,,0.00,Wunderground v.1.15,2013-03-27 09:35:00,
2013-03-27 02:40:00,50.1,43.2,30.05,SSE,165,0.0,1.0,77,0.00,,,0.00,Wunderground v.1.15,2013-03-27 09:40:00,
2013-03-27 02:45:00,50.3,43.0,30.05,SSE,166,3.0,5.0,76,0.00,,,0.00,Wunderground v.1.15,2013-03-27 09:45:00,
2013-03-27 02:50:00,50.0,43.1,30.05,SSE,166,0.0,1.0,77,0.00,,,0.00,Wunderground v.1.15,2013-03-27 09:50:00,
2013-03-27 02:55:00,50.0,43.4,30.05,SSE,166,0.0,1.0,78,0.00,,,0.00,Wunderground v.1.15,2013-03-27 09:55:00,
2013-03-27 03:00:00,50.5,43.6,30.05,SSE,165,2.0,2.0,77,0.00,,,0.00,Wunderground v.1.15,2013-03-27 10:00:00,
2013-03-27 03:05:00,50.5,43.6,30.05,SSE,165,0.0,4.0,77,0.00,,,0.00,Wunderground v.1.15,2013-03-27 10:05:00,
2013-03-27 03:10:00,50.3,43.4,30.05,SSE,164,0.0,0.0,77,0.00,,,0.00,Wunderground v.1.15,2013-03-27 10:10:00,
2013-03-27 03:15:00,50.1,43.5,30.05,SSE,165,0.0,0.0,78,0.00,,,0.00,Wunderground v.1.15,2013-03-27 10:15:00,
2013-03-27 03:20:00,50.1,43.5,30.05,SSE,165,0.0,0.0,78,0.00,,,0.00,Wunderground v.1.15,2013-03-27 10:20:00,
2013-03-27 03:25:00,50.1,43.2,30.05,SSE,165,0.0,2.0,77,0.00,,,0.00,Wunderground v.1.15,2013-03-27 10:25:00,
2013-03-27 03:30:00,50.2,43.6,30.05,SSE,164,3.0,4.0,78,0.00,,,0.00,Wunderground v.1.15,2013-03-27 10:30:00,
2013-03-27 03:35:00,50.5,43.6,30.05,SSE,163,0.0,5.0,77,0.00,,,0.00,Wunderground v.1.15,2013-03-27 10:35:00,
2013-03-27 03:40:00,50.5,43.6,30.04,SSE,163,3.0,3.0,77,0.00,,,0.00,Wunderground v.1.15,2013-03-27 10:40:00,
2013-03-27 03:45:00,50.6,43.7,30.05,SSE,160,0.0,5.0,77,0.00,,,0.00,Wunderground v.1.15,2013-03-27 10:45:00,
2013-03-27 03:50:00,50.6,43.7,30.05,SSE,160,0.0,1.0,77,0.00,,,0.00,Wunderground v.1.15,2013-03-27 10:50:00,
2013-03-27 03:55:00,50.7,43.8,30.05,SSE,159,2.0,4.0,77,0.00,,,0.00,Wunderground v.1.15,2013-03-27 10:55:00,
2013-03-27 04:00:00,50.8,43.5,30.05,SSE,150,3.0,3.0,76,0.00,,,0.00,Wunderground v.1.15,2013-03-27 11:00:00,
2013-03-27 04:06:00,50.8,43.5,30.05,SE,140,3.0,10.0,76,0.00,,,0.00,Wunderground v.1.15,2013-03-27 11:06:00,
2013-03-27 04:11:00,50.5,43.2,30.05,SE,144,0.0,4.0,76,0.00,,,0.00,Wunderground v.1.15,2013-03-27 11:11:00,
2013-03-27 04:16:00,50.5,43.6,30.05,SE,141,0.0,4.0,77,0.00,,,0.00,Wunderground v.1.15,2013-03-27 11:16:00,
2013-03-27 04:21:00,50.5,43.2,30.05,SE,140,1.0,2.0,76,0.00,,,0.00,Wunderground v.1.15,2013-03-27 11:21:00,
2013-03-27 04:26:00,50.5,43.6,30.05,SE,138,0.0,4.0,77,0.00,,,0.00,Wunderground v.1.15,2013-03-27 11:26:00,
2013-03-27 04:32:00,50.2,43.3,30.05,SE,138,0.0,0.0,77,0.00,,,0.00,Wunderground v.1.15,2013-03-27 11:32:00,
2013-03-27 04:37:00,50.3,43.4,30.05,SE,140,0.0,5.0,77,0.00,,,0.00,Wunderground v.1.15,2013-03-27 11:37:00,
2013-03-27 04:42:00,50.2,43.3,30.05,SE,144,3.0,4.0,77,0.00,,,0.00,Wunderground v.1.15,2013-03-27 11:42:00,
2013-03-27 04:47:00,50.1,43.2,30.05,SE,146,3.0,6.0,77,0.00,,,0.00,Wunderground v.1.15,2013-03-27 11:47:00,
2013-03-27 04:52:00,50.0,43.4,30.05,SSE,148,0.0,2.0,78,0.00,,,0.00,Wunderground v.1.15,2013-03-27 11:52:00,
2013-03-27 04:57:00,49.9,43.3,30.05,SSE,150,1.0,5.0,78,0.00,,,0.00,Wunderground v.1.15,2013-03-27 11:57:00,
2013-03-27 05:02:00,49.7,43.1,30.05,SSE,153,0.0,6.0,78,0.00,,,0.00,Wunderground v.1.15,2013-03-27 12:02:00,
2013-03-27 05:07:00,49.5,42.9,30.04,SSE,154,0.0,6.0,78,0.00,,,0.00,Wunderground v.1.15,2013-03-27 12:07:00,
2013-03-27 05:12:00,49.6,43.4,30.04,SSE,154,1.0,5.0,79,0.00,,,0.00,Wunderground v.1.15,2013-03-27 12:12:00,
2013-03-27 05:17:00,49.6,43.0,30.05,SSE,154,3.0,5.0,78,0.00,,,0.00,Wunderground v.1.15,2013-03-27 12:17:00,
2013-03-27 05:22:00,49.4,42.8,30.05,SSE,154,0.0,3.0,78,0.00,,,0.00,Wunderground v.1.15,2013-03-27 12:22:00,
2013-03-27 05:27:00,49.1,42.9,30.05,SSE,154,0.0,3.0,79,0.00,,,0.00,Wunderground v.1.15,2013-03-27 12:27:00,
2013-03-27 05:32:00,49.0,42.8,30.05,SSE,154,0.0,0.0,79,0.00,,,0.00,Wunderground v.1.15,2013-03-27 12:32:00,
2013-03-27 05:37:00,48.9,43.0,30.05,SSE,154,0.0,0.0,80,0.00,,,0.00,Wunderground v.1.15,2013-03-27 12:37:00,
2013-03-27 05:42:00,49.2,43.0,30.05,SSE,153,0.0,4.0,79,0.00,,,0.00,Wunderground v.1.15,2013-03-27 12:42:00,
2013-03-27 05:47:00,49.4,43.5,30.05,SSE,153,0.0,4.0,80,0.00,,,0.00,Wunderground v.1.15,2013-03-27 12:47:00,
2013-03-27 05:52:00,49.5,43.6,30.05,SSE,153,0.0,3.0,80,0.00,,,0.00,Wunderground v.1.15,2013-03-27 12:52:00,
2013-03-27 05:57:00,49.6,43.7,30.05,SSE,153,0.0,3.0,80,0.00,,,0.00,Wunderground v.1.15,2013-03-27 12:57:00,
2013-03-27 06:02:00,49.7,43.8,30.05,SSE,154,0.0,0.0,80,0.00,,,0.00,Wunderground v.1.15,2013-03-27 13:02:00,
2013-03-27 06:07:00,49.9,44.0,30.05,SSE,153,3.0,4.0,80,0.00,,,0.00,Wunderground v.1.15,2013-03-27 13:07:00,
2013-03-27 06:12:00,50.1,44.2,30.05,SSE,151,1.0,6.0,80,0.00,,,0.00,Wunderground v.1.15,2013-03-27 13:12:00,
2013-03-27 06:17:00,50.3,44.0,30.05,SSE,150,0.0,6.0,79,0.00,,,0.00,Wunderground v.1.15,2013-03-27 13:17:00,
2013-03-27 06:22:00,50.3,44.0,30.05,SSE,150,0.0,2.0,79,0.00,,,0.00,Wunderground v.1.15,2013-03-27 13:22:00,
2013-03-27 06:27:00,50.4,44.1,30.05,SSE,148,0.0,5.0,79,0.00,,,0.00,Wunderground v.1.15,2013-03-27 13:27:00,
2013-03-27 06:32:00,50.4,44.5,30.05,SSE,148,0.0,4.0,80,0.00,,,0.00,Wunderground v.1.15,2013-03-27 13:32:00,
2013-03-27 06:37:00,50.4,44.5,30.05,SE,146,0.0,6.0,80,0.00,,,0.00,Wunderground v.1.15,2013-03-27 13:37:00,
2013-03-27 06:42:00,50.5,44.6,30.05,SE,145,0.0,3.0,80,0.00,,,0.00,Wunderground v.1.15,2013-03-27 13:42:00,
2013-03-27 06:48:00,50.5,44.6,30.06,SE,142,2.0,5.0,80,0.00,,,0.00,Wunderground v.1.15,2013-03-27 13:48:00,
2013-03-27 06:53:00,50.6,44.7,30.06,SE,140,3.0,6.0,80,0.00,,,0.00,Wunderground v.1.15,2013-03-27 13:53:00,
2013-03-27 06:58:00,50.7,44.8,30.06,SE,138,4.0,6.0,80,0.00,,,0.00,Wunderground v.1.15,2013-03-27 13:58:00,
2013-03-27 07:03:00,50.7,44.8,30.06,SE,138,3.0,4.0,80,0.00,,,0.00,Wunderground v.1.15,2013-03-27 14:03:00,
2013-03-27 07:08:00,50.8,44.9,30.06,SE,140,3.0,7.0,80,0.00,,,0.00,Wunderground v.1.15,2013-03-27 14:08:00,
2013-03-27 07:14:00,50.9,44.9,30.06,SE,138,0.0,7.0,80,0.00,,,0.00,Wunderground v.1.15,2013-03-27 14:14:00,
2013-03-27 07:19:00,51.0,44.7,30.06,SE,130,2.0,11.0,79,0.00,,,0.00,Wunderground v.1.15,2013-03-27 14:19:00,
2013-03-27 07:24:00,51.0,44.7,30.06,SE,134,3.0,7.0,79,0.00,,,0.00,Wunderground v.1.15,2013-03-27 14:24:00,
2013-03-27 07:29:00,51.0,44.7,30.06,SE,138,0.0,7.0,79,0.00,,,0.00,Wunderground v.1.15,2013-03-27 14:29:00,
2013-03-27 07:34:00,50.9,44.9,30.06,SE,137,6.0,6.0,80,0.00,,,0.00,Wunderground v.1.15,2013-03-27 14:34:00,
2013-03-27 07:39:00,50.9,44.9,30.06,SE,136,1.0,6.0,80,0.00,,,0.00,Wunderground v.1.15,2013-03-27 14:39:00,
2013-03-27 07:44:00,50.9,44.9,30.06,SE,137,0.0,4.0,80,0.00,,,0.00,Wunderground v.1.15,2013-03-27 14:44:00,
2013-03-27 07:49:00,51.0,45.0,30.07,SE,136,0.0,4.0,80,0.00,,,0.00,Wunderground v.1.15,2013-03-27 14:49:00,
2013-03-27 07:54:00,51.1,45.1,30.07,SE,140,0.0,4.0,80,0.00,,,0.00,Wunderground v.1.15,2013-03-27 14:54:00,
2013-03-27 07:59:00,51.3,45.3,30.07,SE,140,0.0,5.0,80,0.00,,,0.00,Wunderground v.1.15,2013-03-27 14:59:00,
2013-03-27 08:04:00,51.4,45.4,30.07,SE,138,2.0,5.0,80,0.00,,,0.00,Wunderground v.1.15,2013-03-27 15:04:00,
2013-03-27 08:09:00,51.5,45.2,30.07,SE,134,3.0,6.0,79,0.00,,,0.00,Wunderground v.1.15,2013-03-27 15:09:00,
2013-03-27 08:14:00,51.5,45.2,30.07,SE,130,0.0,10.0,79,0.00,,,0.00,Wunderground v.1.15,2013-03-27 15:14:00,
2013-03-27 08:19:00,51.7,45.7,30.08,SE,130,4.0,10.0,80,0.00,,,0.00,Wunderground v.1.15,2013-03-27 15:19:00,
2013-03-27 08:24:00,51.8,45.5,30.07,SE,131,0.0,7.0,79,0.00,,,0.00,Wunderground v.1.15,2013-03-27 15:24:00,
2013-03-27 08:29:00,52.3,46.0,30.08,SE,131,5.0,7.0,79,0.00,,,0.00,Wunderground v.1.15,2013-03-27 15:29:00,
2013-03-27 08:34:00,52.4,45.7,30.07,SE,132,3.0,6.0,78,0.00,,,0.00,Wunderground v.1.15,2013-03-27 15:34:00,
2013-03-27 08:39:00,52.9,46.6,30.07,SE,129,1.0,8.0,79,0.00,,,0.00,Wunderground v.1.15,2013-03-27 15:39:00,
2013-03-27 08:44:00,53.5,46.8,30.07,SE,132,0.0,6.0,78,0.00,,,0.00,Wunderground v.1.15,2013-03-27 15:44:00,
2013-03-27 08:49:00,53.9,46.9,30.07,SE,133,0.0,6.0,77,0.00,,,0.00,Wunderground v.1.15,2013-03-27 15:49:00,
2013-03-27 08:54:00,54.0,46.6,30.07,SE,130,5.0,8.0,76,0.00,,,0.00,Wunderground v.1.15,2013-03-27 15:54:00,
2013-03-27 08:59:00,54.3,46.9,30.07,SE,134,6.0,8.0,76,0.00,,,0.00,Wunderground v.1.15,2013-03-27 15:59:00,
2013-03-27 09:04:00,54.6,47.2,30.07,SSE,148,6.0,10.0,76,0.00,,,0.00,Wunderground v.1.15,2013-03-27 16:04:00,
2013-03-27 09:09:00,55.0,47.6,30.08,SSE,159,4.0,10.0,76,0.00,,,0.00,Wunderground v.1.15,2013-03-27 16:09:00,
2013-03-27 09:14:00,55.2,47.4,30.08,SSE,150,2.0,10.0,75,0.00,,,0.00,Wunderground v.1.15,2013-03-27 16:14:00,
2013-03-27 09:19:00,56.0,47.8,30.08,SSE,152,2.0,10.0,74,0.00,,,0.00,Wunderground v.1.15,2013-03-27 16:19:00,
2013-03-27 09:24:00,56.2,48.0,30.08,SSE,164,2.0,9.0,74,0.00,,,0.00,Wunderground v.1.15,2013-03-27 16:24:00,
2013-03-27 09:29:00,56.6,48.4,30.08,SSE,165,0.0,9.0,74,0.00,,,0.00,Wunderground v.1.15,2013-03-27 16:29:00,
2013-03-27 09:34:00,57.2,48.6,30.08,SSE,168,1.0,9.0,73,0.00,,,0.00,Wunderground v.1.15,2013-03-27 16:34:00,
2013-03-27 09:39:00,57.9,49.3,30.08,SSE,163,0.0,9.0,73,0.00,,,0.00,Wunderground v.1.15,2013-03-27 16:39:00,
2013-03-27 09:44:00,57.9,48.9,30.08,South,171,3.0,7.0,72,0.00,,,0.00,Wunderground v.1.15,2013-03-27 16:44:00,
2013-03-27 09:49:00,58.1,49.1,30.08,South,172,5.0,7.0,72,0.00,,,0.00,Wunderground v.1.15,2013-03-27 16:49:00,
2013-03-27 09:54:00,58.1,49.1,30.08,South,172,0.0,7.0,72,0.00,,,0.00,Wunderground v.1.15,2013-03-27 16:54:00,
2013-03-27 09:59:00,58.6,49.6,30.08,South,171,0.0,7.0,72,0.00,,,0.00,Wunderground v.1.15,2013-03-27 16:59:00,
2013-03-27 10:04:00,59.0,50.0,30.08,SSW,192,7.0,9.0,72,0.00,,,0.00,Wunderground v.1.15,2013-03-27 17:04:00,
2013-03-27 10:10:00,59.3,49.5,30.08,SSE,163,4.0,4.0,70,0.00,,,0.00,Wunderground v.1.15,2013-03-27 17:10:00,
2013-03-27 10:15:00,59.8,50.0,30.08,SSE,147,0.0,6.0,70,0.00,,,0.00,Wunderground v.1.15,2013-03-27 17:15:00,
2013-03-27 10:20:00,60.2,49.6,30.08,SE,142,2.0,4.0,68,0.00,,,0.00,Wunderground v.1.15,2013-03-27 17:20:00,
2013-03-27 10:25:00,60.6,50.0,30.08,SE,138,5.0,6.0,68,0.00,,,0.00,Wunderground v.1.15,2013-03-27 17:25:00,
2013-03-27 10:30:00,60.9,50.3,30.08,ESE,122,5.0,6.0,68,0.00,,,0.00,Wunderground v.1.15,2013-03-27 17:30:00,
2013-03-27 10:35:00,61.0,50.4,30.08,SSE,153,4.0,9.0,68,0.00,,,0.00,Wunderground v.1.15,2013-03-27 17:35:00,
2013-03-27 10:40:00,61.5,51.2,30.09,SSE,152,3.0,7.0,69,0.00,,,0.00,Wunderground v.1.15,2013-03-27 17:40:00,
2013-03-27 10:45:00,61.4,51.1,30.09,South,172,2.0,9.0,69,0.00,,,0.00,Wunderground v.1.15,2013-03-27 17:45:00,
2013-03-27 10:50:00,61.8,51.1,30.09,SSE,164,3.0,7.0,68,0.00,,,0.00,Wunderground v.1.15,2013-03-27 17:50:00,
2013-03-27 10:55:00,62.1,51.4,30.09,SSE,163,0.0,7.0,68,0.00,,,0.00,Wunderground v.1.15,2013-03-27 17:55:00,
2013-03-27 11:00:00,62.2,51.1,30.09,South,190,5.0,12.0,67,0.00,,,0.00,Wunderground v.1.15,2013-03-27 18:00:00,
2013-03-27 11:05:00,62.2,51.5,30.09,South,184,4.0,12.0,68,0.00,,,0.00,Wunderground v.1.15,2013-03-27 18:05:00,
2013-03-27 11:11:00,63.1,52.4,30.08,South,190,6.0,9.0,68,0.00,,,0.00,Wunderground v.1.15,2013-03-27 18:11:00,
2013-03-27 11:16:00,63.2,52.1,30.08,South,177,7.0,13.0,67,0.00,,,0.00,Wunderground v.1.15,2013-03-27 18:16:00,
2013-03-27 11:21:00,63.1,51.6,30.08,South,187,10.0,10.0,66,0.00,,,0.00,Wunderground v.1.15,2013-03-27 18:21:00,
2013-03-27 11:26:00,63.7,52.1,30.08,SSW,200,6.0,11.0,66,0.00,,,0.00,Wunderground v.1.15,2013-03-27 18:26:00,
2013-03-27 11:31:00,64.2,52.6,30.08,SSW,205,2.0,6.0,66,0.00,,,0.00,Wunderground v.1.15,2013-03-27 18:31:00,
2013-03-27 11:36:00,64.5,52.0,30.08,South,179,2.0,9.0,64,0.00,,,0.00,Wunderground v.1.15,2013-03-27 18:36:00,
2013-03-27 11:41:00,64.4,52.4,30.08,South,179,7.0,11.0,65,0.00,,,0.00,Wunderground v.1.15,2013-03-27 18:41:00,
2013-03-27 11:46:00,64.7,52.7,30.08,SSW,194,2.0,12.0,65,0.00,,,0.00,Wunderground v.1.15,2013-03-27 18:46:00,
2013-03-27 11:51:00,65.2,53.1,30.08,South,188,2.0,7.0,65,0.00,,,0.00,Wunderground v.1.15,2013-03-27 18:51:00,
2013-03-27 11:56:00,65.6,52.2,30.08,South,186,4.0,10.0,62,0.00,,,0.00,Wunderground v.1.15,2013-03-27 18:56:00,
2013-03-27 12:01:00,65.8,51.5,30.08,SSW,197,5.0,13.0,60,0.00,,,0.00,Wunderground v.1.15,2013-03-27 19:01:00,
2013-03-27 12:06:00,66.2,52.8,30.08,SW,217,4.0,13.0,62,0.00,,,0.00,Wunderground v.1.15,2013-03-27 19:06:00,
2013-03-27 12:11:00,66.1,51.8,30.08,South,176,6.0,12.0,60,0.00,,,0.00,Wunderground v.1.15,2013-03-27 19:11:00,
2013-03-27 12:16:00,66.6,53.2,30.08,South,171,7.0,14.0,62,0.00,,,0.00,Wunderground v.1.15,2013-03-27 19:16:00,
2013-03-27 12:21:00,66.6,53.2,30.08,South,184,5.0,8.0,62,0.00,,,0.00,Wunderground v.1.15,2013-03-27 19:21:00,
2013-03-27 12:27:00,66.7,52.4,30.08,SSE,154,5.0,12.0,60,0.00,,,0.00,Wunderground v.1.15,2013-03-27 19:27:00,
2013-03-27 12:32:00,67.6,53.2,30.08,SSW,205,6.0,12.0,60,0.00,,,0.00,Wunderground v.1.15,2013-03-27 19:32:00,
2013-03-27 12:37:00,67.3,52.5,30.08,SW,216,6.0,15.0,59,0.00,,,0.00,Wunderground v.1.15,2013-03-27 19:37:00,
2013-03-27 12:42:00,67.7,52.9,30.08,SW,217,7.0,12.0,59,0.00,,,0.00,Wunderground v.1.15,2013-03-27 19:42:00,
2013-03-27 12:47:00,67.6,52.8,30.08,SW,218,3.0,12.0,59,0.00,,,0.00,Wunderground v.1.15,2013-03-27 19:47:00,
2013-03-27 12:52:00,68.2,52.9,30.08,South,183,2.0,13.0,58,0.00,,,0.00,Wunderground v.1.15,2013-03-27 19:52:00,
2013-03-27 12:57:00,68.6,52.3,30.08,SW,224,5.0,13.0,56,0.00,,,0.00,Wunderground v.1.15,2013-03-27 19:57:00,
2013-03-27 13:02:00,68.1,52.3,30.07,SSW,205,8.0,11.0,57,0.00,,,0.00,Wunderground v.1.15,2013-03-27 20:02:00,
2013-03-27 13:07:00,67.5,52.2,30.07,South,178,4.0,15.0,58,0.00,,,0.00,Wunderground v.1.15,2013-03-27 20:07:00,
2013-03-27 13:12:00,67.3,51.5,30.07,South,173,11.0,15.0,57,0.00,,,0.00,Wunderground v.1.15,2013-03-27 20:12:00,
2013-03-27 13:17:00,67.4,51.6,30.07,SSE,161,4.0,15.0,57,0.00,,,0.00,Wunderground v.1.15,2013-03-27 20:17:00,
2013-03-27 13:22:00,67.6,51.8,30.07,South,182,10.0,14.0,57,0.00,,,0.00,Wunderground v.1.15,2013-03-27 20:22:00,
2013-03-27 13:27:00,68.1,52.3,30.07,SSW,198,13.0,14.0,57,0.00,,,0.00,Wunderground v.1.15,2013-03-27 20:27:00,
2013-03-27 13:32:00,68.6,52.3,30.07,South,187,12.0,14.0,56,0.00,,,0.00,Wunderground v.1.15,2013-03-27 20:32:00,
2013-03-27 13:37:00,68.3,52.5,30.07,SW,223,10.0,14.0,57,0.00,,,0.00,Wunderground v.1.15,2013-03-27 20:37:00,
2013-03-27 13:43:00,68.4,52.1,30.06,South,169,4.0,14.0,56,0.00,,,0.00,Wunderground v.1.15,2013-03-27 20:43:00,
2013-03-27 13:48:00,69.0,52.6,30.07,SW,222,12.0,15.0,56,0.00,,,0.00,Wunderground v.1.15,2013-03-27 20:48:00,
2013-03-27 13:53:00,68.6,51.8,30.07,SW,231,10.0,15.0,55,0.00,,,0.00,Wunderground v.1.15,2013-03-27 20:53:00,
2013-03-27 13:58:00,68.9,52.6,30.07,SSW,205,11.0,15.0,56,0.00,,,0.00,Wunderground v.1.15,2013-03-27 20:58:00,
2013-03-27 14:03:00,69.3,53.4,30.07,SW,229,7.0,12.0,57,0.00,,,0.00,Wunderground v.1.15,2013-03-27 21:03:00,
2013-03-27 14:08:00,69.0,51.2,30.07,SW,217,9.0,16.0,53,0.00,,,0.00,Wunderground v.1.15,2013-03-27 21:08:00,
2013-03-27 14:13:00,69.3,52.9,30.06,South,184,12.0,15.0,56,0.00,,,0.00,Wunderground v.1.15,2013-03-27 21:13:00,
2013-03-27 14:18:00,69.0,52.2,30.07,South,188,12.0,18.0,55,0.00,,,0.00,Wunderground v.1.15,2013-03-27 21:18:00,
2013-03-27 14:23:00,68.8,52.9,30.06,South,188,7.0,15.0,57,0.00,,,0.00,Wunderground v.1.15,2013-03-27 21:23:00,
2013-03-27 14:28:00,68.6,52.3,30.06,SSW,198,9.0,18.0,56,0.00,,,0.00,Wunderground v.1.15,2013-03-27 21:28:00,
2013-03-27 14:33:00,68.2,52.4,30.07,SW,217,12.0,20.0,57,0.00,,,0.00,Wunderground v.1.15,2013-03-27 21:33:00,
2013-03-27 14:38:00,68.6,52.8,30.06,South,185,12.0,20.0,57,0.00,,,0.00,Wunderground v.1.15,2013-03-27 21:38:00,
2013-03-27 14:43:00,68.6,52.8,30.06,SSW,198,13.0,15.0,57,0.00,,,0.00,Wunderground v.1.15,2013-03-27 21:43:00,
2013-03-27 14:48:00,68.4,52.6,30.06,South,188,5.0,16.0,57,0.00,,,0.00,Wunderground v.1.15,2013-03-27 21:48:00,
2013-03-27 14:53:00,68.6,52.8,30.06,SW,226,16.0,20.0,57,0.00,,,0.00,Wunderground v.1.15,2013-03-27 21:53:00,
2013-03-27 14:58:00,67.9,52.1,30.06,South,187,13.0,20.0,57,0.00,,,0.00,Wunderground v.1.15,2013-03-27 21:58:00,
2013-03-27 15:03:00,67.9,53.0,30.06,SW,231,16.0,16.0,59,0.00,,,0.00,Wunderground v.1.15,2013-03-27 22:03:00,
2013-03-27 15:08:00,68.3,52.5,30.06,South,178,11.0,18.0,57,0.00,,,0.00,Wunderground v.1.15,2013-03-27 22:08:00,
2013-03-27 15:14:00,67.9,52.1,30.06,SW,223,11.0,18.0,57,0.00,,,0.00,Wunderground v.1.15,2013-03-27 22:14:00,
2013-03-27 15:19:00,68.4,53.0,30.06,SW,222,11.0,18.0,58,0.00,,,0.00,Wunderground v.1.15,2013-03-27 22:19:00,
2013-03-27 15:24:00,68.3,53.4,30.06,SSW,208,10.0,19.0,59,0.00,,,0.00,Wunderground v.1.15,2013-03-27 22:24:00,
2013-03-27 15:29:00,68.3,52.5,30.06,SW,216,12.0,19.0,57,0.00,,,0.00,Wunderground v.1.15,2013-03-27 22:29:00,
2013-03-27 15:34:00,67.8,52.5,30.06,SSW,209,14.0,21.0,58,0.00,,,0.00,Wunderground v.1.15,2013-03-27 22:34:00,
2013-03-27 15:39:00,67.6,51.8,30.06,SSW,213,9.0,21.0,57,0.00,,,0.00,Wunderground v.1.15,2013-03-27 22:39:00,
2013-03-27 15:44:00,67.7,52.4,30.06,WSW,238,13.0,18.0,58,0.00,,,0.00,Wunderground v.1.15,2013-03-27 22:44:00,
2013-03-27 15:49:00,67.8,52.0,30.06,SW,226,12.0,18.0,57,0.00,,,0.00,Wunderground v.1.15,2013-03-27 22:49:00,
2013-03-27 15:54:00,67.8,52.5,30.06,SW,218,12.0,20.0,58,0.00,,,0.00,Wunderground v.1.15,2013-03-27 22:54:00,
2013-03-27 15:59:00,67.6,51.3,30.06,SSW,206,9.0,20.0,56,0.00,,,0.00,Wunderground v.1.15,2013-03-27 22:59:00,
2013-03-27 16:04:00,67.8,52.0,30.06,SW,223,17.0,18.0,57,0.00,,,0.00,Wunderground v.1.15,2013-03-27 23:04:00,
2013-03-27 16:09:00,67.4,52.1,30.06,SSW,199,16.0,18.0,58,0.00,,,0.00,Wunderground v.1.15,2013-03-27 23:09:00,
2013-03-27 16:14:00,67.4,52.1,30.06,SSW,196,14.0,16.0,58,0.00,,,0.00,Wunderground v.1.15,2013-03-27 23:14:00,
2013-03-27 16:19:00,67.2,51.9,30.06,SW,228,12.0,20.0,58,0.00,,,0.00,Wunderground v.1.15,2013-03-27 23:19:00,
2013-03-27 16:24:00,67.0,51.7,30.06,South,182,11.0,18.0,58,0.00,,,0.00,Wunderground v.1.15,2013-03-27 23:24:00,
2013-03-27 16:29:00,66.9,51.6,30.06,SW,215,11.0,20.0,58,0.00,,,0.00,Wunderground v.1.15,2013-03-27 23:29:00,
2013-03-27 16:34:00,66.8,51.5,30.06,SW,216,8.0,20.0,58,0.00,,,0.00,Wunderground v.1.15,2013-03-27 23:34:00,
2013-03-27 16:39:00,66.8,51.1,30.06,SSW,209,10.0,20.0,57,0.00,,,0.00,Wunderground v.1.15,2013-03-27 23:39:00,
2013-03-27 16:44:00,66.5,52.2,30.07,SW,234,15.0,19.0,60,0.00,,,0.00,Wunderground v.1.15,2013-03-27 23:44:00,
2013-03-27 16:49:00,66.5,51.3,30.06,SW,217,12.0,19.0,58,0.00,,,0.00,Wunderground v.1.15,2013-03-27 23:49:00,
2013-03-27 16:54:00,66.4,51.2,30.06,SW,218,10.0,19.0,58,0.00,,,0.00,Wunderground v.1.15,2013-03-27 23:54:00,
2013-03-27 16:59:00,66.4,50.7,30.06,SW,223,12.0,19.0,57,0.00,,,0.00,Wunderground v.1.15,2013-03-27 23:59:00,
2013-03-27 17:04:00,66.4,51.6,30.06,SW,215,10.0,19.0,59,0.00,,,0.00,Wunderground v.1.15,2013-03-28 00:04:00,
2013-03-27 17:09:00,66.5,51.7,30.06,SW,220,16.0,19.0,59,0.00,,,0.00,Wunderground v.1.15,2013-03-28 00:09:00,
2013-03-27 17:14:00,66.4,51.2,30.06,SW,225,10.0,18.0,58,0.00,,,0.00,Wunderground v.1.15,2013-03-28 00:14:00,
2013-03-27 17:19:00,66.3,51.5,30.06,SW,233,15.0,18.0,59,0.00,,,0.00,Wunderground v.1.15,2013-03-28 00:19:00,
2013-03-27 17:24:00,66.2,50.5,30.06,SW,224,9.0,17.0,57,0.00,,,0.00,Wunderground v.1.15,2013-03-28 00:24:00,
2013-03-27 17:29:00,66.1,50.4,30.06,SW,234,10.0,18.0,57,0.00,,,0.00,Wunderground v.1.15,2013-03-28 00:29:00,
2013-03-27 17:34:00,65.9,50.2,30.06,SW,218,11.0,17.0,57,0.00,,,0.00,Wunderground v.1.15,2013-03-28 00:34:00,
2013-03-27 17:39:00,65.8,50.6,30.06,SW,217,9.0,17.0,58,0.00,,,0.00,Wunderground v.1.15,2013-03-28 00:39:00,
2013-03-27 17:44:00,66.0,50.8,30.06,SSW,209,12.0,14.0,58,0.00,,,0.00,Wunderground v.1.15,2013-03-28 00:44:00,
2013-03-27 17:49:00,66.0,50.8,30.06,SW,228,9.0,14.0,58,0.00,,,0.00,Wunderground v.1.15,2013-03-28 00:49:00,
2013-03-27 17:54:00,66.0,51.3,30.06,SW,227,9.0,13.0,59,0.00,,,0.00,Wunderground v.1.15,2013-03-28 00:54:00,
2013-03-27 17:59:00,65.6,50.9,30.07,SW,233,13.0,15.0,59,0.00,,,0.00,Wunderground v.1.15,2013-03-28 00:59:00,
2013-03-27 18:04:00,65.5,50.8,30.07,SW,236,9.0,16.0,59,0.00,,,0.00,Wunderground v.1.15,2013-03-28 01:04:00,
2013-03-27 18:09:00,65.3,51.5,30.07,SW,232,4.0,16.0,61,0.00,,,0.00,Wunderground v.1.15,2013-03-28 01:09:00,
2013-03-27 18:14:00,65.0,50.8,30.07,SW,234,12.0,12.0,60,0.00,,,0.00,Wunderground v.1.15,2013-03-28 01:14:00,
2013-03-27 18:20:00,64.5,50.7,30.07,SW,226,6.0,8.0,61,0.00,,,0.00,Wunderground v.1.15,2013-03-28 01:20:00,
2013-03-27 18:25:00,64.2,50.5,30.07,SW,232,6.0,11.0,61,0.00,,,0.00,Wunderground v.1.15,2013-03-28 01:25:00,
2013-03-27 18:30:00,64.1,50.4,30.07,SW,232,5.0,8.0,61,0.00,,,0.00,Wunderground v.1.15,2013-03-28 01:30:00,
2013-03-27 18:35:00,64.1,50.4,30.07,SW,226,7.0,10.0,61,0.00,,,0.00,Wunderground v.1.15,2013-03-28 01:35:00,
2013-03-27 18:40:00,63.8,50.5,30.07,SW,229,7.0,10.0,62,0.00,,,0.00,Wunderground v.1.15,2013-03-28 01:40:00,
2013-03-27 18:45:00,63.3,50.5,30.07,WSW,241,6.0,12.0,63,0.00,,,0.00,Wunderground v.1.15,2013-03-28 01:45:00,
2013-03-27 18:50:00,63.2,50.4,30.07,SW,236,10.0,10.0,63,0.00,,,0.00,Wunderground v.1.15,2013-03-28 01:50:00,
2013-03-27 18:55:00,62.8,50.4,30.07,WSW,237,9.0,10.0,64,0.00,,,0.00,Wunderground v.1.15,2013-03-28 01:55:00,
2013-03-27 19:00:00,62.3,50.4,30.07,SW,234,7.0,7.0,65,0.00,,,0.00,Wunderground v.1.15,2013-03-28 02:00:00,
2013-03-27 19:05:00,62.0,49.7,30.08,SW,231,7.0,11.0,64,0.00,,,0.00,Wunderground v.1.15,2013-03-28 02:05:00,
2013-03-27 19:10:00,62.0,50.1,30.08,WSW,240,5.0,6.0,65,0.00,,,0.00,Wunderground v.1.15,2013-03-28 02:10:00,
2013-03-27 19:15:00,62.0,50.1,30.08,WSW,240,4.0,9.0,65,0.00,,,0.00,Wunderground v.1.15,2013-03-28 02:15:00,
2013-03-27 19:20:00,61.8,49.9,30.08,WSW,240,4.0,5.0,65,0.00,,,0.00,Wunderground v.1.15,2013-03-28 02:20:00,
2013-03-27 19:25:00,61.6,50.1,30.08,WSW,241,5.0,7.0,66,0.00,,,0.00,Wunderground v.1.15,2013-03-28 02:25:00,
2013-03-27 19:30:00,61.0,50.0,30.08,WSW,241,4.0,4.0,67,0.00,,,0.00,Wunderground v.1.15,2013-03-28 02:30:00,
2013-03-27 19:35:00,60.7,50.1,30.08,WSW,240,4.0,7.0,68,0.00,,,0.00,Wunderground v.1.15,2013-03-28 02:35:00,
2013-03-27 19:40:00,60.3,50.1,30.08,WSW,240,4.0,4.0,69,0.00,,,0.00,Wunderground v.1.15,2013-03-28 02:40:00,
2013-03-27 19:45:00,59.8,50.0,30.08,WSW,240,6.0,6.0,70,0.00,,,0.00,Wunderground v.1.15,2013-03-28 02:45:00,
2013-03-27 19:50:00,59.6,50.2,30.08,SW,236,4.0,5.0,71,0.00,,,0.00,Wunderground v.1.15,2013-03-28 02:50:00,
2013-03-27 19:55:00,59.8,50.8,30.08,SW,229,4.0,7.0,72,0.00,,,0.00,Wunderground v.1.15,2013-03-28 02:55:00,
2013-03-27 20:00:00,59.8,50.8,30.08,SW,224,4.0,4.0,72,0.00,,,0.00,Wunderground v.1.15,2013-03-28 03:00:00,
2013-03-27 20:05:00,59.9,50.8,30.08,SW,221,2.0,5.0,72,0.00,,,0.00,Wunderground v.1.15,2013-03-28 03:05:00,
2013-03-27 20:10:00,59.8,51.1,30.08,SW,214,4.0,5.0,73,0.00,,,0.00,Wunderground v.1.15,2013-03-28 03:10:00,
2013-03-27 20:15:00,59.6,50.9,30.09,SSW,208,5.0,6.0,73,0.00,,,0.00,Wunderground v.1.15,2013-03-28 03:15:00,
2013-03-27 20:21:00,59.5,51.2,30.09,SSW,209,2.0,3.0,74,0.00,,,0.00,Wunderground v.1.15,2013-03-28 03:21:00,
2013-03-27 20:26:00,59.0,51.1,30.09,SSW,203,4.0,5.0,75,0.00,,,0.00,Wunderground v.1.15,2013-03-28 03:26:00,
2013-03-27 20:31:00,59.0,51.1,30.09,SSW,196,4.0,7.0,75,0.00,,,0.00,Wunderground v.1.15,2013-03-28 03:31:00,
2013-03-27 20:36:00,59.0,51.1,30.09,SSW,201,5.0,9.0,75,0.00,,,0.00,Wunderground v.1.15,2013-03-28 03:36:00,
2013-03-27 20:41:00,59.0,51.1,30.09,SSW,202,4.0,6.0,75,0.00,,,0.00,Wunderground v.1.15,2013-03-28 03:41:00,
2013-03-27 20:46:00,59.0,51.1,30.09,SSW,198,5.0,10.0,75,0.00,,,0.00,Wunderground v.1.15,2013-03-28 03:46:00,
2013-03-27 20:51:00,59.0,51.1,30.09,SSW,197,4.0,7.0,75,0.00,,,0.00,Wunderground v.1.15,2013-03-28 03:51:00,
2013-03-27 20:56:00,58.9,51.3,30.10,SSW,196,2.0,7.0,76,0.00,,,0.00,Wunderground v.1.15,2013-03-28 03:56:00,
2013-03-27 21:00:00,58.7,51.2,30.10,SSW,194,11.0,11.0,76,0.00,,,0.00,Wunderground v.1.15,2013-03-28 04:00:00,
2013-03-27 21:05:00,58.5,51.0,30.10,South,191,4.0,11.0,76,0.00,,,0.00,Wunderground v.1.15,2013-03-28 04:05:00,
2013-03-27 21:10:00,58.2,50.7,30.10,South,191,2.0,6.0,76,0.00,,,0.00,Wunderground v.1.15,2013-03-28 04:10:00,
2013-03-27 21:15:00,57.7,50.5,30.10,South,188,3.0,10.0,77,0.00,,,0.00,Wunderground v.1.15,2013-03-28 04:15:00,
2013-03-27 21:21:00,57.5,50.7,30.10,South,186,4.0,7.0,78,0.00,,,0.00,Wunderground v.1.15,2013-03-28 04:21:00,
2013-03-27 21:26:00,57.4,50.6,30.10,South,188,3.0,9.0,78,0.00,,,0.00,Wunderground v.1.15,2013-03-28 04:26:00,
2013-03-27 21:31:00,57.1,50.3,30.11,South,186,2.0,5.0,78,0.00,,,0.00,Wunderground v.1.15,2013-03-28 04:31:00,
2013-03-27 21:36:00,56.7,50.3,30.11,South,176,4.0,7.0,79,0.00,,,0.00,Wunderground v.1.15,2013-03-28 04:36:00,
2013-03-27 21:41:00,56.5,50.1,30.11,South,176,6.0,6.0,79,0.00,,,0.00,Wunderground v.1.15,2013-03-28 04:41:00,
2013-03-27 21:46:00,56.2,50.1,30.11,South,176,4.0,7.0,80,0.00,,,0.00,Wunderground v.1.15,2013-03-28 04:46:00,
2013-03-27 21:51:00,56.1,50.0,30.11,South,176,5.0,6.0,80,0.00,,,0.00,Wunderground v.1.15,2013-03-28 04:51:00,
2013-03-27 21:56:00,55.7,50.0,30.11,South,178,5.0,7.0,81,0.00,,,0.00,Wunderground v.1.15,2013-03-28 04:56:00,
2013-03-27 22:01:00,55.7,50.0,30.12,South,179,5.0,9.0,81,0.00,,,0.00,Wunderground v.1.15,2013-03-28 05:01:00,
2013-03-27 22:06:00,55.5,50.1,30.12,South,179,3.0,9.0,82,0.00,,,0.00,Wunderground v.1.15,2013-03-28 05:06:00,
2013-03-27 22:11:00,55.2,49.8,30.12,South,180,2.0,6.0,82,0.00,,,0.00,Wunderground v.1.15,2013-03-28 05:11:00,
2013-03-27 22:16:00,55.0,49.6,30.13,South,180,5.0,7.0,82,0.00,,,0.00,Wunderground v.1.15,2013-03-28 05:16:00,
2013-03-27 22:21:00,54.8,49.7,30.13,South,179,4.0,6.0,83,0.00,,,0.00,Wunderground v.1.15,2013-03-28 05:21:00,
2013-03-27 22:26:00,54.8,49.7,30.13,South,179,4.0,7.0,83,0.00,,,0.00,Wunderground v.1.15,2013-03-28 05:26:00,
2013-03-27 22:31:00,54.7,49.6,30.13,South,178,2.0,7.0,83,0.00,,,0.00,Wunderground v.1.15,2013-03-28 05:31:00,
2013-03-27 22:36:00,54.6,49.5,30.13,South,178,5.0,10.0,83,0.00,,,0.00,Wunderground v.1.15,2013-03-28 05:36:00,
2013-03-27 22:41:00,54.5,49.4,30.13,South,178,3.0,6.0,83,0.00,,,0.00,Wunderground v.1.15,2013-03-28 05:41:00,
2013-03-27 22:46:00,54.3,49.6,30.13,South,178,3.0,6.0,84,0.00,,,0.00,Wunderground v.1.15,2013-03-28 05:46:00,
2013-03-27 22:51:00,54.2,49.5,30.13,South,178,5.0,6.0,84,0.00,,,0.00,Wunderground v.1.15,2013-03-28 05:51:00,
2013-03-27 22:56:00,54.1,49.4,30.13,South,179,6.0,10.0,84,0.00,,,0.00,Wunderground v.1.15,2013-03-28 05:56:00,
2013-03-27 23:01:00,54.0,49.3,30.13,South,179,4.0,6.0,84,0.00,,,0.00,Wunderground v.1.15,2013-03-28 06:01:00,
2013-03-27 23:06:00,54.0,49.3,30.13,South,179,5.0,7.0,84,0.00,,,0.00,Wunderground v.1.15,2013-03-28 06:06:00,
2013-03-27 23:12:00,53.7,49.0,30.13,South,178,4.0,6.0,84,0.00,,,0.00,Wunderground v.1.15,2013-03-28 06:12:00,
2013-03-27 23:17:00,53.7,49.3,30.13,South,179,4.0,10.0,85,0.00,,,0.00,Wunderground v.1.15,2013-03-28 06:17:00,
2013-03-27 23:22:00,53.8,49.1,30.13,South,180,5.0,9.0,84,0.00,,,0.00,Wunderground v.1.15,2013-03-28 06:22:00,
2013-03-27 23:27:00,53.7,49.0,30.13,South,180,3.0,9.0,84,0.00,,,0.00,Wunderground v.1.15,2013-03-28 06:27:00,
2013-03-27 23:32:00,53.6,49.2,30.13,South,179,3.0,7.0,85,0.00,,,0.00,Wunderground v.1.15,2013-03-28 06:32:00,
2013-03-27 23:37:00,53.7,49.3,30.13,South,179,4.0,10.0,85,0.00,,,0.00,Wunderground v.1.15,2013-03-28 06:37:00,
2013-03-27 23:42:00,53.5,49.1,30.13,South,178,3.0,6.0,85,0.00,,,0.00,Wunderground v.1.15,2013-03-28 06:42:00,
2013-03-27 23:47:00,53.3,48.9,30.13,South,178,2.0,6.0,85,0.00,,,0.00,Wunderground v.1.15,2013-03-28 06:47:00,
2013-03-27 23:52:00,53.2,48.8,30.13,South,177,2.0,5.0,85,0.00,,,0.00,Wunderground v.1.15,2013-03-28 06:52:00,
2013-03-27 23:57:00,53.2,48.8,30.13,South,178,3.0,5.0,85,0.00,,,0.00,Wunderground v.1.15,2013-03-28 06:57:00,